Regional Weather Roundup
Issued by NWS

Home | Current Version | Previous Version | Text Only | Print | Product List | Glossary On
Versions: 1 2 3 4 5 6 7 8 9 10 11 12 13 14 15 16 17 18 19 20 21 22 23 24 25 26 27 28 29 30 31 32 33 34 35 36 37 38 39 40 41 42 43 44 45 46 47 48 49 50
332
ASUS44 KOUN 010110
RWROK

WEATHER ROUNDUP FOR OKLAHOMA
NATIONAL WEATHER SERVICE NORMAN OK
800 PM CDT SUN APR 30 2017

NOTE: "FAIR" INDICATES FEW OR NO CLOUDS BELOW 12,000 FEET WITH NO
      SIGNIFICANT WEATHER AND/OR OBSTRUCTIONS TO VISIBILITY.

OKZ001>007-009>012-014-015-017-010200-
NORTHWEST OKLAHOMA AND THE PANHANDLE

CITY           SKY/WX    TMP DP  RH WIND       PRES   REMARKS
GAGE           CLOUDY    40  34  79 NW29G39   29.76R WCI  29
ENID/WOODRING  CLOUDY    45  39  81 W20G29    29.60R
$$

OKZ016-021>023-033>039-044-045-010200-
SOUTHWEST OKLAHOMA

CITY           SKY/WX    TMP DP  RH WIND       PRES   REMARKS
LAWTON/REGL    PTCLDY    49  34  56 W16G30    29.81R
LAWTON/FT SILL MOCLDY    48  35  60 W17G25    29.79R
FREDERICK      CLEAR     50  34  54 NW22G33   29.82R
CLINTON          N/A    N/A N/A N/A MISG      29.78R
HOBART         CLEAR     46  33  60 NW25G38   29.80R
ALTUS AFB      CLEAR     49  31  51 NW24G33   29.83R
$$

OKZ018>020-024>031-010200-
CENTRAL OKLAHOMA

CITY           SKY/WX    TMP DP  RH WIND       PRES   REMARKS
OKLAHOMA CITY  CLOUDY    53  36  52 W25G38    29.69R
OKC/WILEY POST CLOUDY    47  36  65 W23G31    29.68R
OKC/TINKER AFB CLOUDY    46  35  65 W28G36    29.67R
GUTHRIE        CLOUDY    47  36  65 W18G32    29.65R
$$

OKZ008-013-054>072-010200-
NORTHEAST OKLAHOMA

CITY           SKY/WX    TMP DP  RH WIND       PRES   REMARKS
TULSA          LGT RAIN  50  41  71 SW24G35   29.58R
TULSA/JONES    LGT RAIN  49  40  71 SW12G24   29.59R
PONCA CITY     CLOUDY    47  41  80 W15G28    29.53R
BARTLESVILLE   CLOUDY    47  42  83 SW15G24   29.52S
MUSKOGEE       CLOUDY    52  36  54 SW21G28   29.66R
$$

OKZ032-040>043-046>053-073>077-010200-
SOUTH CENTRAL/SOUTHEAST OKLAHOMA

CITY           SKY/WX    TMP DP  RH WIND       PRES   REMARKS
ARDMORE/DWNTWN MOCLDY    52  32  46 NW7G20    29.80R
MCALESTER      LGT RAIN  53  34  48 SW24G44   29.71R
$$





USA.gov is the U.S. government's official web portal to all federal, state and local government web resources and services.